Weather in Berd

Armenia     40˚53′05″N   45˚23′07″E
temp.,
°C
wind,
m/s
gust,
m/s
humid.,
%
clouds,
%
prec.,
mm/h
press.,
hPa
HPBL,
m
30 november, mon
mon3001:00+4˚wnw1192100 0.2 1026132
04:00+4˚wsw1287100 0.3 1025136
07:00+3˚nnw0186100 0.0 102535
10:00+5˚ese117998 0.0 1025156
13:00+7˚ene227095 0.0 1023535
16:00+7˚e337196 0.0 1022643
19:00+5˚e3490100 0.0 1023275
22:00+5˚e239498 0.0 1024208
1 december, tue
tue101:00+4˚e2295100 0.0 1024166
04:00+4˚e1294100 0.0 1024174
07:00+4˚e1293100 0.0 1023157
10:00+5˚ese018489 0.0 1024261
13:00+7˚ne227356 0.0 1022565
16:00+7˚nne117263 0.0 1021522
19:00+5˚w118282 0.0 102322
22:00+4˚sw118391 0.0 102422
2 december, wed
wed201:00+3˚sw118667 0.0 102522
04:00+3˚wsw118434 0.0 102522
07:00+2˚wsw11830 0.0 102622
10:00+5˚n116935 0.0 1025101
13:00+8˚ne226476 0.0 1023454
16:00+8˚e226151 0.0 1023591
19:00+5˚sse117649 0.0 102422
22:00+4˚sse118171 0.0 102622
3 december, thu
thu301:00+3˚wsw118529 0.0 102622
04:00+4˚w118439 0.0 102722
07:00+4˚wnw008390 0.0 102723
10:00+5˚nne117995 0.0 1028143
13:00+7˚ne227496 0.0 1026462
16:00+7˚ene227192 0.0 1026531
19:00+5˚ese117950 0.0 102892
22:00+5˚e118066 0.0 102890
4 december, fri
fri401:00+5˚e1182100 0.0 102984
04:00+5˚ene1187100 0.0 102992
07:00+5˚ne1193100 0.0 1029109
10:00+5˚ene229499 0.0 1029192
13:00+5˚ene2393100 0.1 1027225
16:00+6˚e1288100 0.1 1026274
19:00+5˚e239199 0.1 1028219
22:00+5˚e2393100 0.1 1028238